Location: ??????
(41.3164°N, 22.6615°E)
Time: 01:22:52
(UTC+00:00)

Cosmos 1605 Rocket - Pass Details

Date: 16 October 2021
Orbit: 945 x 1005 km, 82.9° (Epoch: 02 December)

Event Time Altitude Azimuth Distance (km) Brightness Sun altitude
Rises 17:03:04 0° 159° (SSE) 3,635 6.8 -15.1°
Reaches altitude 10° 17:05:44 10° 151° (SSE) 2,702 6.0 -15.6°
Maximum altitude 17:11:15 35° 87° (E) 1,527 4.5 -16.6°
Drops below altitude 10° 17:16:52 10° 25° (NNE) 2,756 6.2 -17.7°
Sets 17:19:37 0° 16° (NNE) 3,717 6.9 -18.2°
